sat.trackr.live / text

‹ back to catalog

FLOCK 4BE-15

NORAD 60491 · 2024-149Z

PAYLOAD ACTIVE UNKNOWN

§ Identity

Operator
Country
US
Launch date
2024-08-16
Launch site
AFWTR
Launch vehicle
Mass (kg)
RCS (m²)

Purposes: earth_obs

External: N2YO · Heavens-Above · Gunter

§ Orbital elements

Epoch: 2026-05-25T03:36:33.631200Z

Period
92.64 min
Inclination
97.3696°
Eccentricity
0.0001613
Mean motion
15.54480770 rev/d
Perigee alt
402.6 km
Apogee alt
404.8 km
Semi-major
6,781.8 km
B*
1.9914e-3
RAAN
229.7493°
Arg perigee
127.3138°
Mean anomaly
232.8263°
Rev number
9,884

§ Raw data

FLOCK 4BE-151 60491U 24149Z   26145.15038925  .00132903  00000+0  19914-2 0  99942 60491  97.3696 229.7493 0001613 127.3138 232.8263 15.54480770 98840

JSON: /api/v1/satellites/60491 · /tle

For live sub-satellite position, see the globe view (requires WebGL).

§ Visibility from observer

Set your observer location to see the next 7 days of passes ≥ 10°. The values pass through the URL so the page stays shareable.

No JS? Fill the form by hand. The geolocation button needs JavaScript.